Location: Grandview
(34.8900°N, 117.1058°W)
Time: 07:10:00
(UTC-07:00)

Tiangong 1 - Pass Details

Date: 09 October 2017
Orbit: 293 x 320 km, 42.8° (Epoch: 20 October)

Event Time Altitude Azimuth Distance (km) Brightness Sun altitude
Rises 19:11:34 0° 289° (WNW) 2,038 6.2 -11.2°
Reaches altitude 10° 19:14:03 10° 314° (NW) 1,202 4.3 -11.7°
Maximum altitude 19:15:48 16° 354° (N) 938 3.1 -12.1°
Enters shadow 19:17:21 11° 32° (NNE) 1,145 3.2 -12.4°
